星链-3333 (STARLINK-3333 )

导读

STARLINK-3333是美国SpaceX公司星链(Starlink)星座的成员卫星,于2022年1月6日发射入轨。星链是全球规模最大的低轨卫星互联网星座,旨在为全球提供高速低延迟宽带服务,覆盖偏远地区、航海航空等场景,同时也具备军事应用潜力。该卫星属于星链组网建设的一部分,推动了星座全球覆盖进程,但星链大规模部署也带来太空碎片、天文干扰等争议问题。

基本信息
目录编号:
50805
目录名称:
STARLINK-3333
国际标识:
2022-001C
轨道中心:
EARTH
卫星名称:
星链-3333
卫星全名:
星链-3333 (STARLINK-3333 )
卫星状态:
在轨 (已飞行1623 天)
发射日期:
2022-01-06 UTC
国别 :
美国 (US)
星等 :
--
轨道信息
数据来源 国际轨道数据 AOE轨道数据
星历时间 2026-06-17T09:05:18+0800
18小时前
查看轨道信息
2026-06-14T01:00:00+0800
4天前
查看轨道信息
半长轴 6917.9km 6917.912km
偏心率 0.0001223 0.0001559
轨道倾角 53.161° 53.160°
近地点辐角 89.531° 93.865°
升交点赤经 73.002° 88.004°
平近点角 270.582° 130.290°
近地点 538.916km 538.696km
远地点 540.61km 540.854km
周期 95.438分钟 95.438分钟
每日圈数 15.088339 15.088299
详细信息
固有亮度:
5
最大亮度:
2.5
卫星平台:
Starlink v1.5
覆盖范围:
全球
运营商:
太空探索技术公司
运营商所在国:
美国
制造商(研发单位):
太空探索技术公司
制造商所在国:
美国
使用方式:
暂无
卫星简介
星链(Starlink)计划是由太空探索技术公司(SpaceX)提出的一个巨型低轨卫星互联网星座项目,计划在2019年至2024年间在太空搭建由约1.2万颗卫星组成的“星链”网络,其中1584颗将部署在地球上空550千米处的近地轨道,并从2020年开始工作。该卫星仍在工作。
2D轨道图
3D轨道图
轨道高度分析图
轨道倾角分析图
轨道综合分析图
查看轨道综合分析图